Creek Data

    Home     View Charts     View Raw Data     Messages

ID Distance Battery Voltage Battery Current Internal Temp Internal Humidity External Temp Solar Input rssi snr Time Stamp Record
35925 0.0 4.08 5 85 45 76 4.5 -80 9 03/24/2025 06:45 PM 17696
35924 0.0 4.05 13 88 44 78 4.5 -81 8 03/24/2025 06:30 PM 17695
35923 0.0 4.08 20 90 44 79 4.5 -82 8 03/24/2025 06:16 PM 17694
35922 0.0 4.10 35 91 43 80 4.5 -82 9 03/24/2025 06:00 PM 17693
35921 0.0 4.04 0 92 42 81 5.1 -82 8 03/24/2025 05:46 PM 17692
35920 0.0 4.15 0 93 42 80 5.1 -83 9 03/24/2025 05:30 PM 17691
35919 0.0 4.04 0 94 41 80 5.1 -82 8 03/24/2025 05:15 PM 17690
35918 0.0 4.10 0 94 41 81 5.1 -83 8 03/24/2025 05:00 PM 17689
35917 0.0 4.04 0 96 40 81 5.1 -83 8 03/24/2025 04:45 PM 17688
35916 0.0 4.04 0 95 40 83 5.1 -83 8 03/24/2025 04:31 PM 17687
35915 0.0 4.04 0 96 39 82 5.1 -84 8 03/24/2025 04:15 PM 17686
35914 0.0 4.05 0 96 38 80 5.1 -84 9 03/24/2025 04:00 PM 17685
35913 0.0 4.04 0 94 38 80 5.1 -83 8 03/24/2025 03:45 PM 17684
35912 0.0 4.07 0 94 37 82 5.1 -84 9 03/24/2025 03:30 PM 17683
35911 0.0 4.13 0 91 38 80 5.1 -84 8 03/24/2025 03:15 PM 17682
35910 0.0 4.15 0 91 38 77 5.1 -83 9 03/24/2025 03:00 PM 17681
35909 0.0 4.04 0 93 36 79 5.1 -84 9 03/24/2025 02:45 PM 17680
35908 0.0 4.15 0 92 36 76 5.1 -83 9 03/24/2025 02:30 PM 17679
35907 0.0 4.04 0 90 36 76 5.1 -82 8 03/24/2025 02:16 PM 17678
35906 0.0 4.04 0 88 36 76 5.1 -82 8 03/24/2025 02:00 PM 17677
35905 0.0 4.04 0 86 37 77 5.1 -83 9 03/24/2025 01:45 PM 17676
35904 0.0 4.04 0 85 37 74 5.1 -83 8 03/24/2025 01:30 PM 17675
35903 0.0 4.04 0 84 37 76 5.1 -83 8 03/24/2025 01:15 PM 17674
35902 0.0 4.04 0 84 37 73 5.1 -83 8 03/24/2025 01:01 PM 17673
35901 0.0 4.04 0 83 37 72 5.1 -83 8 03/24/2025 12:45 PM 17672